Content
SEND FEEDBACK

Daily
Averages
Monthly
Summary
United States of America

LIVONIA, MICHIGAN


Home > North America > United States > Michigan
Elevation: 778 feet     Latitude: 42 13N     Longitude: 083 31W

WEATHER
 
SELECT A DAY
Number of Records: 202,743;   Date Range: 1/1/95 - 8/30/14
 
SHARE

PRINT THIS DATA

[ ← Previous Day ]
WEATHER ALMANAC - SEPTEMBER 5, 2013
[ Next Day → ]
[ °C ]   °F
Weather ElementAverageHighLow
Temperature65.4 °F73.9 °F (3:53 pm)55.9 °F (11:53 pm)
Dewpoint51.8 °F60.8 °F (12:41 am)43 °F (2:53 pm)
Humidity63.9 %83 % (1:00 am)34 % (2:53 pm)
Barometer30.19 in30.27 in (10:53 pm)30.08 in (12:53 am)
Wind Speed7.1 mph10.4 mph (8:53 am)
Weather ElementAverage
Visibility10 mi
Wind DirectionWSW (247.2 °)

Weather ElementTotal
Precipitation0.02 in
Heating Degree Days0.1 (Base 65)
Growing Degree Days14.9 (Base 50)
Averaged from 29 records on September 5, 2013
WEATHER CONDITIONS BREAKOUT
WIND DIRECTION BREAKOUT
WEATHER BY HOUR - SEPTEMBER 5, 2013
[ °C ]   °F
Local TimeTemperatureDewpointHumidityBarometerVisibilityWind DirectionWind SpeedGust SpeedPrecipitationEventsConditions
12:41 AM69.8 °F60.8 °F73 %30.10 in10.0 miWNW (300°)5.8 mphMostly Cloudy
12:53 AM68.0 °F60.1 °F76 %30.08 in10.0 miWNW (300°)5.8 mphMostly Cloudy
1:00 AM66.2 °F60.8 °F83 %30.10 in10.0 miWNW (300°)6.9 mphScattered Clouds
1:14 AM68.0 °F60.8 °F78 %30.10 in10.0 miNW (310°)6.9 mphMostly Cloudy
1:24 AM66.2 °F59.0 °F78 %30.10 in10.0 miNW (310°)4.6 mphScattered Clouds
1:53 AM66.9 °F60.1 °F79 %30.09 in10.0 miNW (310°)5.8 mphMostly Cloudy
2:53 AM66.9 °F57.9 °F73 %30.10 in10.0 miNW (320°)5.8 mphOvercast
3:53 AM64.0 °F57.0 °F78 %30.11 in10.0 miNNW (330°)6.9 mphClear
4:53 AM62.1 °F55.0 °F78 %30.14 in10.0 miNNW (330°)8.1 mphClear
5:53 AM60.1 °F54.0 °F80 %30.15 in10.0 miNW (320°)8.1 mphClear
6:53 AM59.0 °F52.0 °F78 %30.18 in10.0 miNNW (340°)8.1 mphClear
7:53 AM57.9 °F52.0 °F81 %30.20 in10.0 miNNW (340°)6.9 mphClear
8:02 AM57.2 °F51.8 °F82 %30.22 in10.0 miNNW (330°)8.1 mph0.01 inPartly Cloudy
8:53 AM60.1 °F51.1 °F72 %30.22 in10.0 miNNW (340°)10.4 mph0.01 inClear
9:53 AM63.0 °F48.9 °F60 %30.22 in10.0 miNorth (360°)8.1 mph
10:53 AM66.0 °F46.0 °F48 %30.24 in10.0 miNNW (340°)8.1 mphClear
11:53 AM68.0 °F46.0 °F45 %30.24 in10.0 miNorth (10°)5.8 mphClear
12:53 PM70.0 °F46.0 °F42 %30.24 in10.0 miNNW (340°)9.2 mphClear
1:53 PM72.0 °F46.9 °F41 %30.24 in10.0 miNorth (350°)6.9 mphClear
2:53 PM73.0 °F43.0 °F34 %30.23 in10.0 miVariable6.9 mphClear
3:53 PM73.9 °F45.0 °F35 %30.22 in10.0 miNorth (10°)9.2 mphClear
4:53 PM73.9 °F46.0 °F37 %30.22 in10.0 miNNE (20°)5.8 mphClear
5:53 PM73.0 °F46.9 °F39 %30.22 in10.0 miNW (320°)9.2 mphClear
6:53 PM71.1 °F46.9 °F42 %30.22 in10.0 miNNW (330°)6.9 mphClear
7:53 PM66.0 °F48.9 °F54 %30.22 in10.0 miNNW (330°)5.8 mphClear
8:53 PM61.0 °F51.1 °F70 %30.24 in10.0 miEast (100°)5.8 mphClear
9:53 PM60.1 °F50.0 °F69 %30.25 in10.0 miENE (70°)8.1 mphClear
10:53 PM57.0 °F48.9 °F74 %30.27 in10.0 miENE (60°)5.8 mphClear
11:53 PM55.9 °F48.0 °F75 %30.27 in10.0 miNE (50°)5.8 mphClear
Hourly data recorded from KYIP, located miles away from Livonia, Michigan







STORIES FROM OUR PARTNERS